Weather History for Henderson, TX

Change the Weather History Date:

Wednesday, October 19, 2011

  Actual Average (KGGG) Record (KGGG)
Temperature  
Mean Temperature 55 °F 65 °F  
Max Temperature 66 °F 77 °F 95 °F (1947)
Min Temperature 44 °F 53 °F 30 °F (1967)
Degree Days  
Heating Degree Days 10 3  
Month to date heating degree days 32  
Since 1 July heating degree days 38  
Cooling Degree Days 0 3  
Month to date cooling degree days 84  
Year to date cooling degree days 2363  
Growing Degree Days 5 (Base 50)    
Moisture  
Dew Point 29 °F    
Average Humidity 39    
Maximum Humidity 61    
Minimum Humidity 23    
Precipitation  
Precipitation 0.00 in 0.15 in 2.42 in (1985)
Month to date precipitation 2.88  
Year to date precipitation 36.87  
Snow  
Snow 0.00 in - - ()
Month to date snowfall  
Since 1 July snowfall  
Since 1 September snowfall  
Snow Depth -    
Sea Level Pressure  
Sea Level Pressure 30.01 in    
Wind  
Wind Speed 8 mph (NW)    
Max Wind Speed 18 mph    
Max Gust Speed 29 mph    
Visibility 10 miles    
Events      
T = Trace of Precipitation, MM = Missing Value Source: NWS Daily Summary

Daily Weather History Graph

Daily Weather History Graph

Search for Another Location

Airport:

Trip Planner

Search our weather history database for the weather conditions in past years. The results will help you decide how hot, cold, wet, or windy it might be!

Date:

Astronomy

Oct. 19, 2011 Rise Set
Actual Time 7:25 AM CDT 6:42 PM CDT
Civil Twilight 7:00 AM CDT 7:07 PM CDT
Nautical Twilight 6:32 AM CDT 7:35 PM CDT
Astronomical Twilight 6:04 AM CDT 8:04 PM CDT
Moon No Moon Rise 1:48 PM CDT (10/19)
Length of Visible Light 12h 06m
Length of Day
11h 16m
Waning Gibbous, 54% of the Moon is Illuminated
Oct 19
Waning Gibbous
Oct 19
Last Quarter
Oct 26
New
Nov 2
First Quarter
Nov 10
Full

Hourly Weather History & Observations

Time (CDT) Temp. Windchill Dew Point Humidity Pressure Visibility Wind Dir Wind Speed Gust Speed Precip Events Conditions
12:15 AM 51.8 °F - 33.8 °F 50% 29.99 in 10.0 mi WNW 3.5 mph - N/A   Clear
12:35 AM 53.6 °F - 32.0 °F 44% 29.99 in 10.0 mi NW 5.8 mph - N/A   Clear
12:55 AM 51.8 °F - 32.0 °F 47% 29.99 in 10.0 mi NW 5.8 mph - N/A   Clear
1:15 AM 51.8 °F - 32.0 °F 47% 29.99 in 10.0 mi NW 6.9 mph - N/A   Clear
1:35 AM 51.8 °F - 32.0 °F 47% 29.99 in 10.0 mi NW 6.9 mph - N/A   Clear
1:55 AM 51.8 °F - 32.0 °F 47% 29.99 in 10.0 mi NW 5.8 mph - N/A   Clear
2:15 AM 51.8 °F - 32.0 °F 47% 29.99 in 10.0 mi NW 8.1 mph - N/A   Clear
2:35 AM 51.8 °F - 32.0 °F 47% 29.99 in 10.0 mi NW 4.6 mph - N/A   Clear
2:55 AM 50.0 °F - 32.0 °F 50% 29.99 in 10.0 mi NW 5.8 mph - N/A   Clear
3:15 AM 50.0 °F - 32.0 °F 50% 29.99 in 10.0 mi NW 5.8 mph - N/A   Clear
3:35 AM 50.0 °F - 32.0 °F 50% 29.98 in 10.0 mi NW 6.9 mph - N/A   Clear
3:55 AM 50.0 °F - 32.0 °F 50% 29.99 in 10.0 mi NW 6.9 mph - N/A   Clear
4:15 AM 50.0 °F - 30.2 °F 47% 29.99 in 10.0 mi NW 6.9 mph - N/A   Clear
4:35 AM 50.0 °F - 30.2 °F 47% 30.00 in 10.0 mi NW 8.1 mph - N/A   Clear
4:55 AM 50.0 °F - 30.2 °F 47% 30.00 in 10.0 mi NW 6.9 mph - N/A   Clear
5:15 AM 48.2 °F - 30.2 °F 50% 30.01 in 10.0 mi NW 6.9 mph - N/A   Clear
5:35 AM 48.2 °F - 30.2 °F 50% 30.01 in 10.0 mi NW 4.6 mph - N/A   Clear
5:55 AM 46.4 °F 43.5 °F 30.2 °F 53% 30.02 in 10.0 mi NW 5.8 mph - N/A   Clear
6:15 AM 46.4 °F 43.5 °F 30.2 °F 53% 30.02 in 10.0 mi WNW 5.8 mph - N/A   Clear
6:35 AM 46.4 °F 44.3 °F 30.2 °F 53% 30.02 in 10.0 mi WNW 4.6 mph - N/A   Clear
6:55 AM 44.6 °F 41.4 °F 30.2 °F 57% 30.02 in 10.0 mi WNW 5.8 mph - N/A   Clear
7:15 AM 44.6 °F 42.2 °F 32.0 °F 61% 30.03 in 10.0 mi WNW 4.6 mph - N/A   Clear
7:35 AM 44.6 °F 42.2 °F 32.0 °F 61% 30.03 in 10.0 mi WNW 4.6 mph - N/A   Clear
8:15 AM 46.4 °F 42.4 °F 32.0 °F 57% 30.04 in 10.0 mi West 8.1 mph - N/A   Clear
8:35 AM 46.4 °F 42.4 °F 32.0 °F 57% 30.05 in 10.0 mi WNW 8.1 mph - N/A   Clear
8:55 AM 50.0 °F - 32.0 °F 50% 30.06 in 10.0 mi WNW 6.9 mph - N/A   Clear
9:15 AM 50.0 °F - 30.2 °F 47% 30.06 in 10.0 mi WNW 8.1 mph - N/A   Clear
9:35 AM 51.8 °F - 30.2 °F 44% 30.07 in 10.0 mi NW 10.4 mph 16.1 mph N/A   Clear
9:55 AM 53.6 °F - 28.4 °F 38% 30.07 in 10.0 mi NW 10.4 mph 21.9 mph N/A   Clear
10:15 AM 55.4 °F - 26.6 °F 33% 30.07 in 10.0 mi NNW 9.2 mph 20.7 mph N/A   Clear
10:35 AM 55.4 °F - 26.6 °F 33% 30.07 in 10.0 mi NW 9.2 mph 18.4 mph N/A   Clear
10:55 AM 57.2 °F - 26.6 °F 31% 30.07 in 10.0 mi NW 16.1 mph 21.9 mph N/A   Clear
11:15 AM 59.0 °F - 26.6 °F 29% 30.06 in 10.0 mi NNW 12.7 mph 23.0 mph N/A   Clear
11:35 AM 60.8 °F - 26.6 °F 27% 30.06 in 10.0 mi North 15.0 mph 23.0 mph N/A   Clear
12:35 PM 60.8 °F - 26.6 °F 27% 30.05 in 10.0 mi North 13.8 mph 24.2 mph N/A   Clear
12:55 PM 62.6 °F - 28.4 °F 27% 30.05 in 10.0 mi NW 11.5 mph 25.3 mph N/A   Clear
1:15 PM 62.6 °F - 26.6 °F 26% 30.03 in 10.0 mi NNW 16.1 mph 24.2 mph N/A   Clear
1:35 PM 62.6 °F - 26.6 °F 26% 30.02 in 10.0 mi NW 15.0 mph 24.2 mph N/A   Scattered Clouds
1:55 PM 62.6 °F - 26.6 °F 26% 30.01 in 10.0 mi NW 12.7 mph 24.2 mph N/A   Scattered Clouds
2:15 PM 64.4 °F - 26.6 °F 24% 30.00 in 10.0 mi NW 15.0 mph 28.8 mph N/A   Clear
2:55 PM 64.4 °F - 26.6 °F 24% 29.99 in 10.0 mi NNW 16.1 mph 27.6 mph N/A   Clear
3:15 PM 64.4 °F - 26.6 °F 24% 29.99 in 10.0 mi NNW 11.5 mph 23.0 mph N/A   Scattered Clouds
3:35 PM 66.2 °F - 26.6 °F 23% 29.98 in 10.0 mi NW 12.7 mph 23.0 mph N/A   Mostly Cloudy
3:55 PM 64.4 °F - 26.6 °F 24% 29.98 in 10.0 mi North 18.4 mph 28.8 mph N/A   Scattered Clouds
4:15 PM 64.4 °F - 26.6 °F 24% 29.98 in 10.0 mi North 10.4 mph 27.6 mph N/A   Mostly Cloudy
4:35 PM 64.4 °F - 26.6 °F 24% 29.98 in 10.0 mi NW 15.0 mph 27.6 mph N/A   Mostly Cloudy
4:55 PM 64.4 °F - 26.6 °F 24% 29.99 in 10.0 mi NW 15.0 mph 23.0 mph N/A   Scattered Clouds
5:15 PM 64.4 °F - 26.6 °F 24% 29.99 in 10.0 mi NW 9.2 mph 21.9 mph N/A   Scattered Clouds
5:35 PM 62.6 °F - 26.6 °F 26% 29.99 in 10.0 mi NW 16.1 mph 23.0 mph N/A   Clear
5:55 PM 62.6 °F - 26.6 °F 26% 29.99 in 10.0 mi NNW 12.7 mph 19.6 mph N/A   Clear
6:15 PM 62.6 °F - 26.6 °F 26% 30.00 in 10.0 mi NNW 5.8 mph 19.6 mph N/A   Clear
6:35 PM 60.8 °F - 26.6 °F 27% 30.00 in 10.0 mi NNW 9.2 mph - N/A   Clear
6:55 PM 60.8 °F - 26.6 °F 27% 30.01 in 10.0 mi NW 5.8 mph - N/A   Clear
7:15 PM 59.0 °F - 26.6 °F 29% 30.02 in 10.0 mi NW 5.8 mph - N/A   Clear
7:35 PM 59.0 °F - 26.6 °F 29% 30.03 in 10.0 mi NW 4.6 mph - N/A   Clear
7:55 PM 57.2 °F - 26.6 °F 31% 30.03 in 10.0 mi NW 3.5 mph - N/A   Clear
8:15 PM 55.4 °F - 26.6 °F 33% 30.03 in 10.0 mi NW 3.5 mph - N/A   Clear
8:35 PM 55.4 °F - 26.6 °F 33% 30.04 in 10.0 mi NW 3.5 mph - N/A   Clear
8:55 PM 53.6 °F - 28.4 °F 38% 30.05 in 10.0 mi Calm Calm - N/A   Clear
9:15 PM 50.0 °F - 30.2 °F 47% 30.06 in 10.0 mi WNW 3.5 mph - N/A   Clear
9:35 PM 51.8 °F - 30.2 °F 44% 30.06 in 10.0 mi WNW 4.6 mph - N/A   Clear
9:55 PM 51.8 °F - 28.4 °F 41% 30.07 in 10.0 mi NW 3.5 mph - N/A   Clear
10:15 PM 51.8 °F - 30.2 °F 44% 30.07 in 10.0 mi Calm Calm - N/A   Clear
10:35 PM 48.2 °F - 32.0 °F 54% 30.08 in 10.0 mi Calm Calm - N/A   Clear
11:15 PM 44.6 °F 43.1 °F 32.0 °F 61% 30.08 in 10.0 mi NW 3.5 mph - N/A   Clear
11:35 PM 48.2 °F - 32.0 °F 54% 30.08 in 10.0 mi Calm Calm - N/A   Clear
11:55 PM 44.6 °F - 33.8 °F 66% 30.08 in 10.0 mi Calm Calm - N/A   Clear